Time,TemperatureF,DewpointF,PressureIn,WindDirection,WindDirectionDegrees,WindSpeedMPH,WindSpeedGustMPH,Humidity,HourlyPrecipIn,Conditions,Clouds,dailyrainin,SolarRadiationWatts/m^2,SoftwareType,DateUTC
2013-03-28 00:00:00,34.0,31.4,29.86,West,280,0.0,1.0,90,0.00,,---,0.00,0.00,VWS V14.01,2013-03-28 04:00:00,
2013-03-28 00:05:00,34.2,31.6,29.86,West,280,0.0,0.0,90,0.00,,---,0.00,0.00,VWS V14.01,2013-03-28 04:05:00,
2013-03-28 00:10:00,34.2,31.6,29.86,West,280,0.0,0.0,90,0.00,,---,0.00,0.00,VWS V14.01,2013-03-28 04:10:00,
2013-03-28 00:15:00,34.3,31.7,29.86,West,280,0.0,0.0,90,0.00,,---,0.00,0.00,VWS V14.01,2013-03-28 04:15:00,
2013-03-28 00:20:00,34.3,31.7,29.86,West,280,0.0,0.0,90,0.00,,---,0.00,0.00,VWS V14.01,2013-03-28 04:20:00,
2013-03-28 00:25:00,34.3,31.7,29.86,West,280,0.0,0.0,90,0.00,,---,0.00,0.00,VWS V14.01,2013-03-28 04:25:00,
2013-03-28 00:30:00,34.3,31.7,29.86,West,280,0.0,0.0,90,0.00,,---,0.00,0.00,VWS V14.01,2013-03-28 04:30:00,
2013-03-28 00:35:00,34.2,31.6,29.86,West,280,0.0,0.0,90,0.00,,---,0.00,0.00,VWS V14.01,2013-03-28 04:35:00,
2013-03-28 00:40:00,34.2,31.9,29.86,West,280,0.0,0.0,91,0.00,,---,0.00,0.00,VWS V14.01,2013-03-28 04:40:00,
2013-03-28 00:45:00,34.2,31.9,29.86,West,280,0.0,0.0,91,0.00,,---,0.00,0.00,VWS V14.01,2013-03-28 04:45:00,
2013-03-28 00:50:00,34.0,31.6,29.86,West,280,0.0,0.0,91,0.00,,---,0.00,0.00,VWS V14.01,2013-03-28 04:50:00,
2013-03-28 00:55:00,34.0,31.6,29.86,West,280,0.0,0.0,91,0.00,,---,0.00,0.00,VWS V14.01,2013-03-28 04:55:00,
2013-03-28 01:00:00,34.0,31.6,29.86,West,280,0.0,0.0,91,0.00,,---,0.00,0.00,VWS V14.01,2013-03-28 05:00:00,
2013-03-28 01:05:00,34.0,31.6,29.86,West,280,0.0,0.0,91,0.00,,---,0.00,0.00,VWS V14.01,2013-03-28 05:05:00,
2013-03-28 01:10:00,33.9,31.8,29.86,West,280,0.0,0.0,92,0.00,,---,0.00,0.00,VWS V14.01,2013-03-28 05:10:00,
2013-03-28 01:15:00,33.9,31.8,29.86,West,280,0.0,0.0,92,0.00,,---,0.00,0.00,VWS V14.01,2013-03-28 05:15:00,
2013-03-28 01:20:00,34.0,31.9,29.87,West,280,0.0,0.0,92,0.00,,---,0.00,0.00,VWS V14.01,2013-03-28 05:20:00,
2013-03-28 01:25:00,34.0,31.9,29.86,West,280,0.0,0.0,92,0.00,,---,0.00,0.00,VWS V14.01,2013-03-28 05:25:00,
2013-03-28 01:30:00,34.0,31.9,29.87,West,280,0.0,0.0,92,0.00,,---,0.00,0.00,VWS V14.01,2013-03-28 05:30:00,
2013-03-28 01:35:00,34.0,31.9,29.87,West,280,0.0,0.0,92,0.00,,---,0.00,0.00,VWS V14.01,2013-03-28 05:35:00,
2013-03-28 01:40:00,34.0,32.2,29.86,West,280,0.0,0.0,93,0.00,,---,0.00,0.00,VWS V14.01,2013-03-28 05:40:00,
2013-03-28 01:45:00,34.0,32.2,29.87,West,280,0.0,0.0,93,0.00,,---,0.00,0.00,VWS V14.01,2013-03-28 05:45:00,
2013-03-28 01:50:00,34.0,32.2,29.86,West,280,0.0,0.0,93,0.00,,---,0.00,0.00,VWS V14.01,2013-03-28 05:50:00,
2013-03-28 01:55:00,33.9,32.1,29.86,West,280,0.0,0.0,93,0.00,,---,0.00,0.00,VWS V14.01,2013-03-28 05:55:00,
2013-03-28 02:00:00,33.9,32.1,29.87,West,280,0.0,0.0,93,0.00,,---,0.00,0.00,VWS V14.01,2013-03-28 06:00:00,
2013-03-28 02:05:00,33.9,32.1,29.87,West,280,0.0,0.0,93,0.00,,---,0.00,0.00,VWS V14.01,2013-03-28 06:05:00,
2013-03-28 02:10:00,33.9,32.1,29.86,West,280,0.0,0.0,93,0.00,,---,0.00,0.00,VWS V14.01,2013-03-28 06:10:00,
2013-03-28 02:15:00,33.9,32.1,29.86,West,280,0.0,0.0,93,0.01,,---,0.01,0.00,VWS V14.01,2013-03-28 06:15:00,
2013-03-28 02:20:00,33.7,31.9,29.86,West,280,0.0,0.0,93,0.01,,---,0.01,0.00,VWS V14.01,2013-03-28 06:20:00,
2013-03-28 02:25:00,33.7,31.9,29.86,West,280,0.0,0.0,93,0.01,,---,0.01,0.00,VWS V14.01,2013-03-28 06:25:00,
2013-03-28 02:30:00,33.7,31.9,29.86,West,280,0.0,0.0,93,0.01,,---,0.01,0.00,VWS V14.01,2013-03-28 06:30:00,
2013-03-28 02:35:00,33.7,32.2,29.87,West,280,0.0,0.0,94,0.01,,---,0.01,0.00,VWS V14.01,2013-03-28 06:35:00,
2013-03-28 02:40:00,33.7,32.2,29.87,West,280,0.0,0.0,94,0.01,,---,0.01,0.00,VWS V14.01,2013-03-28 06:40:00,
2013-03-28 02:45:00,33.7,32.2,29.87,West,280,0.0,0.0,94,0.01,,---,0.01,0.00,VWS V14.01,2013-03-28 06:45:00,
2013-03-28 02:50:00,33.7,32.2,29.87,West,280,0.0,0.0,94,0.01,,---,0.01,0.00,VWS V14.01,2013-03-28 06:50:00,
2013-03-28 02:55:00,33.7,32.2,29.87,West,280,0.0,0.0,94,0.01,,---,0.01,0.00,VWS V14.01,2013-03-28 06:55:00,
2013-03-28 03:00:00,33.7,32.2,29.87,West,280,0.0,0.0,94,0.01,,---,0.01,0.00,VWS V14.01,2013-03-28 07:00:00,
2013-03-28 03:05:00,33.6,32.1,29.87,West,280,0.0,0.0,94,0.01,,---,0.01,0.00,VWS V14.01,2013-03-28 07:05:00,
2013-03-28 03:10:00,33.7,32.2,29.87,West,280,0.0,0.0,94,0.01,,---,0.01,0.00,VWS V14.01,2013-03-28 07:10:00,
2013-03-28 03:15:00,33.7,32.4,29.87,West,280,0.0,0.0,95,0.01,,---,0.01,0.00,VWS V14.01,2013-03-28 07:15:00,
2013-03-28 03:20:00,33.6,32.3,29.87,West,280,0.0,0.0,95,0.00,,---,0.01,0.00,VWS V14.01,2013-03-28 07:20:00,
2013-03-28 03:25:00,33.6,32.3,29.87,West,280,0.0,0.0,95,0.00,,---,0.01,0.00,VWS V14.01,2013-03-28 07:25:00,
2013-03-28 03:30:00,33.6,32.3,29.87,West,280,0.0,0.0,95,0.00,,---,0.01,0.00,VWS V14.01,2013-03-28 07:30:00,
2013-03-28 03:35:00,33.6,32.3,29.87,West,280,0.0,0.0,95,0.00,,---,0.01,0.00,VWS V14.01,2013-03-28 07:35:00,
2013-03-28 03:40:00,33.4,32.1,29.87,West,280,0.0,0.0,95,0.00,,---,0.01,0.00,VWS V14.01,2013-03-28 07:40:00,
2013-03-28 03:45:00,33.3,32.0,29.86,West,280,0.0,0.0,95,0.00,,---,0.01,0.00,VWS V14.01,2013-03-28 07:45:00,
2013-03-28 03:50:00,33.3,32.0,29.87,West,280,0.0,0.0,95,0.00,,---,0.01,0.00,VWS V14.01,2013-03-28 07:50:00,
2013-03-28 03:55:00,33.1,31.8,29.87,West,280,0.0,0.0,95,0.00,,---,0.01,0.00,VWS V14.01,2013-03-28 07:55:00,
2013-03-28 04:00:00,33.1,31.8,29.86,West,280,0.0,0.0,95,0.00,,---,0.01,0.00,VWS V14.01,2013-03-28 08:00:00,
2013-03-28 04:05:00,33.1,31.8,29.87,West,280,0.0,0.0,95,0.00,,---,0.01,0.00,VWS V14.01,2013-03-28 08:05:00,
2013-03-28 04:10:00,33.0,31.7,29.87,West,280,0.0,0.0,95,0.00,,---,0.01,0.00,VWS V14.01,2013-03-28 08:10:00,
2013-03-28 04:15:00,33.0,31.7,29.87,West,280,0.0,0.0,95,0.00,,---,0.01,0.00,VWS V14.01,2013-03-28 08:15:00,
2013-03-28 04:20:00,33.0,31.7,29.87,West,280,0.0,0.0,95,0.00,,---,0.01,0.00,VWS V14.01,2013-03-28 08:20:00,
2013-03-28 04:25:00,33.1,31.8,29.87,West,280,0.0,0.0,95,0.00,,---,0.01,0.00,VWS V14.01,2013-03-28 08:25:00,
2013-03-28 04:30:00,33.0,31.7,29.87,West,280,0.0,0.0,95,0.00,,---,0.01,0.00,VWS V14.01,2013-03-28 08:30:00,
2013-03-28 04:35:00,33.0,31.7,29.87,West,280,0.0,0.0,95,0.00,,---,0.01,0.00,VWS V14.01,2013-03-28 08:35:00,
2013-03-28 04:40:00,33.0,31.7,29.87,West,280,0.0,0.0,95,0.00,,---,0.01,0.00,VWS V14.01,2013-03-28 08:40:00,
2013-03-28 04:45:00,33.0,32.0,29.87,West,280,0.0,0.0,96,0.00,,---,0.01,0.00,VWS V14.01,2013-03-28 08:45:00,
2013-03-28 04:50:00,32.8,31.5,29.87,West,280,0.0,0.0,95,0.00,,---,0.01,0.00,VWS V14.01,2013-03-28 08:50:00,
2013-03-28 04:55:00,32.8,31.5,29.87,West,280,0.0,0.0,95,0.00,,---,0.01,0.00,VWS V14.01,2013-03-28 08:55:00,
2013-03-28 05:00:00,32.7,31.4,29.87,West,280,0.0,0.0,95,0.00,,---,0.01,0.00,VWS V14.01,2013-03-28 09:00:00,
2013-03-28 05:05:00,32.7,31.4,29.87,West,280,0.0,0.0,95,0.00,,---,0.01,0.00,VWS V14.01,2013-03-28 09:05:00,
2013-03-28 05:10:00,32.6,31.6,29.87,West,280,0.0,0.0,96,0.00,,---,0.01,0.00,VWS V14.01,2013-03-28 09:10:00,
2013-03-28 05:15:00,32.4,31.1,29.87,West,280,0.0,0.0,95,0.00,,---,0.01,0.00,VWS V14.01,2013-03-28 09:15:00,
2013-03-28 05:20:00,32.3,31.0,29.87,West,280,0.0,0.0,95,0.00,,---,0.01,0.00,VWS V14.01,2013-03-28 09:20:00,
2013-03-28 05:25:00,32.1,30.8,29.87,West,280,0.0,0.0,95,0.00,,---,0.01,0.00,VWS V14.01,2013-03-28 09:25:00,
2013-03-28 05:30:00,32.1,30.8,29.88,West,280,0.0,0.0,95,0.00,,---,0.01,0.00,VWS V14.01,2013-03-28 09:30:00,
2013-03-28 05:35:00,32.1,31.1,29.88,West,280,0.0,0.0,96,0.00,,---,0.01,0.00,VWS V14.01,2013-03-28 09:35:00,
2013-03-28 05:40:00,32.4,31.4,29.88,West,280,0.0,0.0,96,0.00,,---,0.01,0.00,VWS V14.01,2013-03-28 09:40:00,
2013-03-28 05:45:00,32.3,31.3,29.88,West,280,0.0,0.0,96,0.00,,---,0.01,0.00,VWS V14.01,2013-03-28 09:45:00,
2013-03-28 05:51:00,32.3,31.3,29.88,West,280,0.0,0.0,96,0.00,,---,0.01,0.00,VWS V14.01,2013-03-28 09:51:00,
2013-03-28 05:55:00,32.1,31.1,29.88,West,280,0.0,0.0,96,0.00,,---,0.01,0.00,VWS V14.01,2013-03-28 09:55:00,
2013-03-28 06:01:00,32.1,31.1,29.88,West,280,0.0,0.0,96,0.00,,---,0.01,0.00,VWS V14.01,2013-03-28 10:01:00,
2013-03-28 06:06:00,32.1,31.1,29.88,West,280,0.0,0.0,96,0.00,,---,0.01,0.00,VWS V14.01,2013-03-28 10:06:00,
2013-03-28 06:11:00,32.0,31.0,29.88,West,280,0.0,0.0,96,0.00,,---,0.01,0.00,VWS V14.01,2013-03-28 10:11:00,
2013-03-28 06:16:00,32.0,31.0,29.88,West,280,0.0,0.0,96,0.00,,---,0.01,0.00,VWS V14.01,2013-03-28 10:16:00,
2013-03-28 06:21:00,32.0,31.0,29.88,West,280,0.0,0.0,96,0.00,,---,0.01,0.00,VWS V14.01,2013-03-28 10:21:00,
2013-03-28 06:26:00,32.0,31.0,29.89,West,280,0.0,0.0,96,0.00,,---,0.01,0.00,VWS V14.01,2013-03-28 10:26:00,
2013-03-28 06:31:00,32.0,31.0,29.89,West,280,0.0,0.0,96,0.00,,---,0.01,0.00,VWS V14.01,2013-03-28 10:31:00,
2013-03-28 06:36:00,32.0,31.0,29.89,West,280,0.0,0.0,96,0.00,,---,0.01,0.00,VWS V14.01,2013-03-28 10:36:00,
2013-03-28 06:41:00,32.0,31.0,29.89,West,280,0.0,0.0,96,0.00,,---,0.01,5.00,VWS V14.01,2013-03-28 10:41:00,
2013-03-28 06:46:00,32.0,31.0,29.89,West,280,0.0,0.0,96,0.00,,---,0.01,9.00,VWS V14.01,2013-03-28 10:46:00,
2013-03-28 06:51:00,32.1,31.1,29.90,West,280,0.0,0.0,96,0.00,,---,0.01,12.00,VWS V14.01,2013-03-28 10:51:00,
2013-03-28 06:56:00,32.1,31.1,29.90,West,280,0.0,0.0,96,0.00,,---,0.01,16.00,VWS V14.01,2013-03-28 10:56:00,
2013-03-28 07:01:00,32.1,31.1,29.90,West,280,0.0,0.0,96,0.00,,---,0.01,19.00,VWS V14.01,2013-03-28 11:01:00,
2013-03-28 07:06:00,32.1,31.1,29.90,West,280,0.0,0.0,96,0.00,,---,0.01,19.00,VWS V14.01,2013-03-28 11:06:00,
2013-03-28 07:11:00,32.3,31.3,29.90,West,280,0.0,0.0,96,0.00,,---,0.01,19.00,VWS V14.01,2013-03-28 11:11:00,
2013-03-28 07:16:00,32.4,31.4,29.90,West,280,0.0,0.0,96,0.00,,---,0.01,19.00,VWS V14.01,2013-03-28 11:16:00,
2013-03-28 07:21:00,32.6,31.6,29.91,West,280,0.0,0.0,96,0.00,,---,0.01,21.00,VWS V14.01,2013-03-28 11:21:00,
2013-03-28 07:26:00,32.6,31.6,29.91,West,280,0.0,0.0,96,0.00,,---,0.01,25.00,VWS V14.01,2013-03-28 11:26:00,
2013-03-28 07:31:00,32.6,31.6,29.91,West,280,0.0,0.0,96,0.00,,---,0.01,30.00,VWS V14.01,2013-03-28 11:31:00,
2013-03-28 07:36:00,32.6,31.6,29.91,West,280,0.0,0.0,96,0.00,,---,0.01,35.00,VWS V14.01,2013-03-28 11:36:00,
2013-03-28 07:41:00,32.7,31.7,29.91,West,280,0.0,0.0,96,0.00,,---,0.01,44.00,VWS V14.01,2013-03-28 11:41:00,
2013-03-28 07:47:00,32.8,31.8,29.91,West,280,0.0,0.0,96,0.00,,---,0.01,51.00,VWS V14.01,2013-03-28 11:47:00,
2013-03-28 07:52:00,33.1,32.3,29.91,West,280,0.0,0.0,97,0.00,,---,0.01,60.00,VWS V14.01,2013-03-28 11:52:00,
2013-03-28 07:57:00,33.3,32.5,29.91,West,280,0.0,0.0,97,0.00,,---,0.01,72.00,VWS V14.01,2013-03-28 11:57:00,
2013-03-28 08:02:00,33.4,32.6,29.91,West,280,0.0,0.0,97,0.00,,---,0.01,70.00,VWS V14.01,2013-03-28 12:02:00,
2013-03-28 08:07:00,33.7,32.9,29.92,West,280,0.0,0.0,97,0.00,,---,0.01,74.00,VWS V14.01,2013-03-28 12:07:00,
2013-03-28 08:12:00,34.0,33.2,29.92,West,280,0.0,0.0,97,0.00,,---,0.01,81.00,VWS V14.01,2013-03-28 12:12:00,
2013-03-28 08:17:00,34.3,33.5,29.92,West,280,0.0,0.0,97,0.00,,---,0.01,90.00,VWS V14.01,2013-03-28 12:17:00,
2013-03-28 08:22:00,34.5,33.5,29.92,West,280,0.0,0.0,96,0.00,,---,0.01,91.00,VWS V14.01,2013-03-28 12:22:00,
2013-03-28 08:27:00,34.8,33.8,29.92,West,280,0.0,0.0,96,0.00,,---,0.01,97.00,VWS V14.01,2013-03-28 12:27:00,
2013-03-28 08:32:00,34.9,33.9,29.92,West,280,0.0,0.0,96,0.00,,---,0.01,107.00,VWS V14.01,2013-03-28 12:32:00,
2013-03-28 08:37:00,35.1,33.8,29.92,West,280,0.0,0.0,95,0.00,,---,0.01,109.00,VWS V14.01,2013-03-28 12:37:00,
2013-03-28 08:42:00,35.2,33.7,29.92,West,280,0.0,0.0,94,0.00,,---,0.01,111.00,VWS V14.01,2013-03-28 12:42:00,
2013-03-28 08:47:00,35.4,33.6,29.92,West,280,0.0,0.0,93,0.00,,---,0.01,120.00,VWS V14.01,2013-03-28 12:47:00,
2013-03-28 08:52:00,35.5,33.4,29.92,West,280,0.0,0.0,92,0.00,,---,0.01,127.00,VWS V14.01,2013-03-28 12:52:00,
2013-03-28 08:57:00,35.7,33.3,29.92,West,280,0.0,0.0,91,0.00,,---,0.01,134.00,VWS V14.01,2013-03-28 12:57:00,
2013-03-28 09:02:00,35.8,33.4,29.92,West,280,0.0,0.0,91,0.00,,---,0.01,142.00,VWS V14.01,2013-03-28 13:02:00,
2013-03-28 09:07:00,36.1,33.2,29.92,West,280,0.0,0.0,89,0.00,,---,0.01,144.00,VWS V14.01,2013-03-28 13:07:00,
2013-03-28 09:12:00,36.2,33.0,29.92,West,280,0.0,0.0,88,0.00,,---,0.01,155.00,VWS V14.01,2013-03-28 13:12:00,
2013-03-28 09:17:00,36.7,33.5,29.92,West,280,0.0,0.0,88,0.00,,---,0.01,165.00,VWS V14.01,2013-03-28 13:17:00,
2013-03-28 09:22:00,37.1,33.9,29.92,West,280,0.0,0.0,88,0.00,,---,0.01,171.00,VWS V14.01,2013-03-28 13:22:00,
2013-03-28 09:27:00,37.4,33.6,29.92,West,280,0.0,0.0,86,0.00,,---,0.01,192.00,VWS V14.01,2013-03-28 13:27:00,
2013-03-28 09:32:00,37.5,33.4,29.91,West,280,0.0,0.0,85,0.00,,---,0.01,190.00,VWS V14.01,2013-03-28 13:32:00,
2013-03-28 09:37:00,37.7,33.3,29.92,West,280,0.0,0.0,84,0.00,,---,0.01,186.00,VWS V14.01,2013-03-28 13:37:00,
2013-03-28 09:42:00,37.8,32.8,29.92,West,280,0.0,0.0,82,0.00,,---,0.01,188.00,VWS V14.01,2013-03-28 13:42:00,
2013-03-28 09:47:00,37.9,32.6,29.92,West,280,0.0,0.0,81,0.00,,---,0.01,192.00,VWS V14.01,2013-03-28 13:47:00,
2013-03-28 09:52:00,38.2,32.6,29.92,West,280,0.0,0.0,80,0.00,,---,0.01,190.00,VWS V14.01,2013-03-28 13:52:00,
2013-03-28 09:57:00,38.4,32.5,29.92,West,280,0.0,0.0,79,0.00,,---,0.01,195.00,VWS V14.01,2013-03-28 13:57:00,
2013-03-28 10:02:00,38.7,32.8,29.92,West,280,0.0,0.0,79,0.00,,---,0.01,206.00,VWS V14.01,2013-03-28 14:02:00,
2013-03-28 10:07:00,38.8,32.5,29.92,West,280,0.0,0.0,78,0.00,,---,0.01,237.00,VWS V14.01,2013-03-28 14:07:00,
2013-03-28 10:12:00,38.8,32.5,29.91,West,280,0.0,0.0,78,0.00,,---,0.01,267.00,VWS V14.01,2013-03-28 14:12:00,
2013-03-28 11:45:00,43.5,32.2,29.92,North,0,0.0,0.0,64,0.00,,---,0.17,402.00,VWS V14.01,2013-03-28 15:45:00,
2013-03-28 12:04:00,43.7,32.3,29.92,North,0,0.0,0.0,64,0.00,,---,0.17,285.00,VWS V14.01,2013-03-28 16:04:00,
2013-03-28 12:09:00,43.5,30.5,29.92,North,0,0.0,0.0,60,0.00,,---,0.17,295.00,VWS V14.01,2013-03-28 16:09:00,
2013-03-28 12:14:00,43.8,30.8,29.92,North,0,0.0,0.0,60,0.00,,---,0.17,299.00,VWS V14.01,2013-03-28 16:14:00,
2013-03-28 12:19:00,43.8,30.4,29.92,North,0,0.0,0.0,59,0.00,,---,0.17,295.00,VWS V14.01,2013-03-28 16:19:00,
2013-03-28 12:24:00,44.0,30.6,29.92,North,0,0.0,0.0,59,0.00,,---,0.17,302.00,VWS V14.01,2013-03-28 16:24:00,
2013-03-28 12:29:00,43.8,30.0,29.92,North,0,0.0,0.0,58,0.00,,---,0.17,244.00,VWS V14.01,2013-03-28 16:29:00,
2013-03-28 12:34:00,43.8,30.4,29.92,North,0,0.0,0.0,59,0.00,,---,0.17,246.00,VWS V14.01,2013-03-28 16:34:00,
2013-03-28 12:39:00,44.2,30.0,29.92,North,0,0.0,0.0,57,0.00,,---,0.17,396.00,VWS V14.01,2013-03-28 16:39:00,
2013-03-28 12:44:00,44.2,30.8,29.92,North,0,0.0,0.0,59,0.00,,---,0.17,415.00,VWS V14.01,2013-03-28 16:44:00,
2013-03-28 12:49:00,45.0,29.8,29.92,North,0,0.0,0.0,55,0.00,,---,0.17,329.00,VWS V14.01,2013-03-28 16:49:00,
2013-03-28 12:54:00,45.0,31.1,29.92,North,0,0.0,0.0,58,0.00,,---,0.17,552.00,VWS V14.01,2013-03-28 16:54:00,
2013-03-28 12:59:00,45.7,30.0,29.92,North,0,0.0,0.0,54,0.00,,---,0.17,517.00,VWS V14.01,2013-03-28 16:59:00,
2013-03-28 13:04:00,45.6,30.8,29.91,North,0,0.0,0.0,56,0.00,,---,0.17,323.00,VWS V14.01,2013-03-28 17:04:00,
2013-03-28 13:09:00,45.6,29.9,29.92,North,0,0.0,0.0,54,0.00,,---,0.17,172.00,VWS V14.01,2013-03-28 17:09:00,
2013-03-28 13:14:00,45.0,29.4,29.91,North,0,0.0,0.0,54,0.00,,---,0.17,114.00,VWS V14.01,2013-03-28 17:14:00,
2013-03-28 13:19:00,44.2,29.5,29.92,North,0,0.0,0.0,56,0.00,,---,0.17,76.00,VWS V14.01,2013-03-28 17:19:00,
2013-03-28 13:24:00,43.8,29.6,29.92,North,0,0.0,0.0,57,0.00,,---,0.17,60.00,VWS V14.01,2013-03-28 17:24:00,
2013-03-28 13:29:00,43.7,29.9,29.92,North,0,0.0,0.0,58,0.00,,---,0.17,63.00,VWS V14.01,2013-03-28 17:29:00,
2013-03-28 13:34:00,43.4,30.0,29.92,North,0,0.0,0.0,59,0.00,,---,0.17,100.00,VWS V14.01,2013-03-28 17:34:00,
2013-03-28 13:39:00,43.1,31.0,29.92,North,0,0.0,0.0,62,0.00,,---,0.17,158.00,VWS V14.01,2013-03-28 17:39:00,
2013-03-28 13:44:00,42.8,31.5,29.92,North,0,0.0,0.0,64,0.00,,---,0.17,158.00,VWS V14.01,2013-03-28 17:44:00,
2013-03-28 13:49:00,42.7,31.4,29.92,North,0,0.0,0.0,64,0.00,,---,0.17,123.00,VWS V14.01,2013-03-28 17:49:00,
2013-03-28 13:54:00,42.8,31.5,29.92,North,0,0.0,0.0,64,0.00,,---,0.17,156.00,VWS V14.01,2013-03-28 17:54:00,
2013-03-28 13:59:00,43.0,31.3,29.92,North,0,0.0,0.0,63,0.00,,---,0.17,172.00,VWS V14.01,2013-03-28 17:59:00,
2013-03-28 14:04:00,42.8,31.9,29.92,North,0,0.0,0.0,65,0.00,,---,0.17,227.00,VWS V14.01,2013-03-28 18:04:00,
2013-03-28 14:09:00,43.2,31.9,29.92,North,0,0.0,0.0,64,0.00,,---,0.17,257.00,VWS V14.01,2013-03-28 18:09:00,
2013-03-28 14:14:00,43.7,30.7,29.91,North,0,0.0,0.0,60,0.00,,---,0.17,279.00,VWS V14.01,2013-03-28 18:14:00,
2013-03-28 14:19:00,44.2,30.4,29.91,North,0,0.0,0.0,58,0.00,,---,0.17,313.00,VWS V14.01,2013-03-28 18:19:00,
2013-03-28 14:24:00,44.7,30.0,29.91,North,0,0.0,0.0,56,0.00,,---,0.17,299.00,VWS V14.01,2013-03-28 18:24:00,
2013-03-28 14:29:00,44.7,30.0,29.91,North,0,0.0,0.0,56,0.00,,---,0.17,234.00,VWS V14.01,2013-03-28 18:29:00,
2013-03-28 14:34:00,44.5,29.8,29.91,North,0,0.0,0.0,56,0.00,,---,0.17,283.00,VWS V14.01,2013-03-28 18:34:00,
2013-03-28 14:39:00,44.7,30.0,29.92,North,0,0.0,0.0,56,0.00,,---,0.17,297.00,VWS V14.01,2013-03-28 18:39:00,
2013-03-28 14:44:00,44.8,29.2,29.91,North,0,0.0,0.0,54,0.00,,---,0.17,287.00,VWS V14.01,2013-03-28 18:44:00,
2013-03-28 14:49:00,44.8,29.2,29.91,North,0,0.0,0.0,54,0.00,,---,0.17,176.00,VWS V14.01,2013-03-28 18:49:00,
2013-03-28 14:54:00,44.4,29.7,29.92,North,0,0.0,0.0,56,0.00,,---,0.17,125.00,VWS V14.01,2013-03-28 18:54:00,
2013-03-28 14:59:00,44.1,29.0,29.91,North,0,0.0,0.0,55,0.00,,---,0.17,123.00,VWS V14.01,2013-03-28 18:59:00,
2013-03-28 15:05:00,44.0,28.9,29.91,North,0,0.0,0.0,55,0.00,,---,0.17,146.00,VWS V14.01,2013-03-28 19:05:00,
2013-03-28 15:10:00,44.1,29.0,29.92,North,0,0.0,0.0,55,0.00,,---,0.17,163.00,VWS V14.01,2013-03-28 19:10:00,
2013-03-28 15:15:00,44.2,29.1,29.92,North,0,0.0,0.0,55,0.00,,---,0.17,183.00,VWS V14.01,2013-03-28 19:15:00,
2013-03-28 15:20:00,44.2,29.5,29.92,North,0,0.0,0.0,56,0.00,,---,0.17,188.00,VWS V14.01,2013-03-28 19:20:00,
2013-03-28 15:25:00,44.0,29.8,29.92,North,0,0.0,0.0,57,0.00,,---,0.17,176.00,VWS V14.01,2013-03-28 19:25:00,
2013-03-28 15:30:00,43.8,29.6,29.92,North,0,0.0,0.0,57,0.00,,---,0.17,123.00,VWS V14.01,2013-03-28 19:30:00,
2013-03-28 15:35:00,43.8,29.1,29.92,North,0,0.0,0.0,56,0.00,,---,0.17,105.00,VWS V14.01,2013-03-28 19:35:00,
2013-03-28 15:40:00,43.5,29.7,29.92,North,0,0.0,0.0,58,0.00,,---,0.17,90.00,VWS V14.01,2013-03-28 19:40:00,
2013-03-28 15:45:00,43.2,29.4,29.92,North,0,0.0,0.0,58,0.00,,---,0.17,83.00,VWS V14.01,2013-03-28 19:45:00,
2013-03-28 15:50:00,43.0,29.7,29.92,North,0,0.0,0.0,59,0.00,,---,0.17,79.00,VWS V14.01,2013-03-28 19:50:00,
2013-03-28 15:55:00,42.8,29.9,29.92,North,0,0.0,0.0,60,0.00,,---,0.17,79.00,VWS V14.01,2013-03-28 19:55:00,
2013-03-28 16:00:00,42.8,29.9,29.92,North,0,0.0,0.0,60,0.00,,---,0.17,81.00,VWS V14.01,2013-03-28 20:00:00,
2013-03-28 16:05:00,42.8,29.9,29.92,North,0,0.0,0.0,60,0.00,,---,0.17,76.00,VWS V14.01,2013-03-28 20:05:00,
2013-03-28 16:10:00,42.8,31.1,29.92,North,0,0.0,0.0,63,0.00,,---,0.17,95.00,VWS V14.01,2013-03-28 20:10:00,
2013-03-28 16:15:00,43.0,30.1,29.92,North,0,0.0,0.0,60,0.00,,---,0.17,120.00,VWS V14.01,2013-03-28 20:15:00,
2013-03-28 16:20:00,43.0,30.9,29.92,North,0,0.0,0.0,62,0.00,,---,0.17,137.00,VWS V14.01,2013-03-28 20:20:00,
2013-03-28 16:25:00,43.2,30.7,29.92,North,0,0.0,0.0,61,0.00,,---,0.17,141.00,VWS V14.01,2013-03-28 20:25:00,
2013-03-28 16:30:00,43.4,30.9,29.92,North,0,0.0,0.0,61,0.00,,---,0.17,141.00,VWS V14.01,2013-03-28 20:30:00,
2013-03-28 16:35:00,43.2,29.9,29.93,North,0,0.0,0.0,59,0.00,,---,0.17,109.00,VWS V14.01,2013-03-28 20:35:00,
2013-03-28 16:40:00,43.2,30.3,29.93,North,0,0.0,0.0,60,0.00,,---,0.17,74.00,VWS V14.01,2013-03-28 20:40:00,
2013-03-28 16:45:00,43.1,29.8,29.92,North,0,0.0,0.0,59,0.00,,---,0.17,58.00,VWS V14.01,2013-03-28 20:45:00,
2013-03-28 16:50:00,43.0,30.1,29.93,North,0,0.0,0.0,60,0.00,,---,0.17,63.00,VWS V14.01,2013-03-28 20:50:00,
2013-03-28 16:55:00,43.0,29.7,29.93,North,0,0.0,0.0,59,0.00,,---,0.17,98.00,VWS V14.01,2013-03-28 20:55:00,
2013-03-28 17:00:00,43.1,30.2,29.93,North,0,0.0,0.0,60,0.00,,---,0.17,111.00,VWS V14.01,2013-03-28 21:00:00,
2013-03-28 17:05:00,43.4,30.5,29.93,North,0,0.0,0.0,60,0.00,,---,0.17,100.00,VWS V14.01,2013-03-28 21:05:00,
2013-03-28 17:10:00,43.2,31.1,29.93,North,0,0.0,0.0,62,0.00,,---,0.17,84.00,VWS V14.01,2013-03-28 21:10:00,
2013-03-28 17:15:00,43.1,30.6,29.93,North,0,0.0,0.0,61,0.00,,---,0.17,70.00,VWS V14.01,2013-03-28 21:15:00,
2013-03-28 17:20:00,43.0,31.3,29.93,North,0,0.0,0.0,63,0.00,,---,0.17,69.00,VWS V14.01,2013-03-28 21:20:00,
2013-03-28 17:25:00,42.7,31.0,29.93,North,0,0.0,0.0,63,0.00,,---,0.17,65.00,VWS V14.01,2013-03-28 21:25:00,
2013-03-28 17:30:00,42.4,30.7,29.93,North,0,0.0,0.0,63,0.00,,---,0.17,63.00,VWS V14.01,2013-03-28 21:30:00,
2013-03-28 17:35:00,42.4,31.5,29.94,North,0,0.0,0.0,65,0.00,,---,0.17,56.00,VWS V14.01,2013-03-28 21:35:00,
2013-03-28 17:40:00,42.5,30.8,29.94,North,0,0.0,0.0,63,0.00,,---,0.17,53.00,VWS V14.01,2013-03-28 21:40:00,
2013-03-28 17:45:00,42.4,31.1,29.94,North,0,0.0,0.0,64,0.00,,---,0.17,54.00,VWS V14.01,2013-03-28 21:45:00,
2013-03-28 17:50:00,42.2,31.3,29.94,North,0,0.0,0.0,65,0.00,,---,0.17,47.00,VWS V14.01,2013-03-28 21:50:00,
2013-03-28 19:08:00,40.8,30.7,29.96,North,0,0.0,0.0,67,0.00,,---,0.17,0.00,VWS V14.01,2013-03-28 23:08:00,
2013-03-28 19:13:00,40.8,30.3,29.96,North,0,0.0,0.0,66,0.00,,---,0.17,0.00,VWS V14.01,2013-03-28 23:13:00,
2013-03-28 19:18:00,40.7,30.6,29.96,North,0,0.0,0.0,67,0.00,,---,0.17,0.00,VWS V14.01,2013-03-28 23:18:00,
2013-03-28 19:23:00,40.4,30.3,29.96,North,0,0.0,0.0,67,0.00,,---,0.17,0.00,VWS V14.01,2013-03-28 23:23:00,
2013-03-28 19:28:00,40.2,30.1,29.96,North,0,0.0,0.0,67,0.00,,---,0.17,0.00,VWS V14.01,2013-03-28 23:28:00,
2013-03-28 19:33:00,40.0,30.3,29.96,North,0,0.0,0.0,68,0.00,,---,0.17,0.00,VWS V14.01,2013-03-28 23:33:00,
2013-03-28 19:38:00,39.7,30.0,29.96,North,0,0.0,0.0,68,0.00,,---,0.17,0.00,VWS V14.01,2013-03-28 23:38:00,
2013-03-28 19:43:00,39.2,29.9,29.97,North,0,0.0,0.0,69,0.00,,---,0.17,0.00,VWS V14.01,2013-03-28 23:43:00,
2013-03-28 19:48:00,39.2,29.9,29.97,North,0,0.0,0.0,69,0.00,,---,0.17,0.00,VWS V14.01,2013-03-28 23:48:00,
2013-03-28 19:53:00,39.1,30.2,29.97,North,0,0.0,0.0,70,0.00,,---,0.17,0.00,VWS V14.01,2013-03-28 23:53:00,
2013-03-28 19:59:00,39.2,29.9,29.97,North,0,0.0,0.0,69,0.00,,---,0.17,0.00,VWS V14.01,2013-03-28 23:59:00,
2013-03-28 20:04:00,39.4,29.7,29.97,North,0,0.0,0.0,68,0.00,,---,0.17,0.00,VWS V14.01,2013-03-29 00:04:00,
2013-03-28 20:09:00,39.2,29.5,29.97,North,0,0.0,0.0,68,0.00,,---,0.17,0.00,VWS V14.01,2013-03-29 00:09:00,
2013-03-28 20:14:00,39.1,29.5,29.97,North,0,0.0,0.0,68,0.00,,---,0.17,0.00,VWS V14.01,2013-03-29 00:14:00,
2013-03-28 20:19:00,39.0,29.7,29.97,North,0,0.0,0.0,69,0.00,,---,0.17,0.00,VWS V14.01,2013-03-29 00:19:00,
2013-03-28 20:24:00,39.0,29.4,29.97,North,0,0.0,0.0,68,0.00,,---,0.17,0.00,VWS V14.01,2013-03-29 00:24:00,
2013-03-28 20:29:00,38.7,29.4,29.97,North,0,0.0,0.0,69,0.00,,---,0.17,0.00,VWS V14.01,2013-03-29 00:29:00,
2013-03-28 20:34:00,38.2,29.3,29.97,North,0,0.0,0.0,70,0.00,,---,0.17,0.00,VWS V14.01,2013-03-29 00:34:00,
2013-03-28 20:39:00,38.1,29.2,29.97,North,0,0.0,0.0,70,0.00,,---,0.17,0.00,VWS V14.01,2013-03-29 00:39:00,
2013-03-28 20:44:00,38.1,29.2,29.98,North,0,0.0,0.0,70,0.00,,---,0.17,0.00,VWS V14.01,2013-03-29 00:44:00,
2013-03-28 20:49:00,38.4,29.5,29.98,North,0,0.0,0.0,70,0.00,,---,0.17,0.00,VWS V14.01,2013-03-29 00:49:00,
2013-03-28 20:54:00,38.4,29.1,29.98,North,0,0.0,0.0,69,0.00,,---,0.17,0.00,VWS V14.01,2013-03-29 00:54:00,
2013-03-28 20:59:00,38.2,28.9,29.98,North,0,0.0,0.0,69,0.00,,---,0.17,0.00,VWS V14.01,2013-03-29 00:59:00,
2013-03-28 21:04:00,38.1,29.2,29.98,North,0,0.0,0.0,70,0.00,,---,0.17,0.00,VWS V14.01,2013-03-29 01:04:00,
2013-03-28 21:09:00,37.8,28.9,29.98,North,0,0.0,0.0,70,0.00,,---,0.17,0.00,VWS V14.01,2013-03-29 01:09:00,
2013-03-28 21:14:00,38.1,29.2,29.98,North,0,0.0,0.0,70,0.00,,---,0.17,0.00,VWS V14.01,2013-03-29 01:14:00,
2013-03-28 21:19:00,38.2,28.9,29.98,North,0,0.0,0.0,69,0.00,,---,0.17,0.00,VWS V14.01,2013-03-29 01:19:00,
2013-03-28 21:24:00,37.9,29.0,29.98,North,0,0.0,0.0,70,0.00,,---,0.17,0.00,VWS V14.01,2013-03-29 01:24:00,
2013-03-28 21:29:00,37.8,28.6,29.99,North,0,0.0,0.0,69,0.00,,---,0.17,0.00,VWS V14.01,2013-03-29 01:29:00,
2013-03-28 21:34:00,37.5,28.6,29.99,North,0,0.0,0.0,70,0.00,,---,0.17,0.00,VWS V14.01,2013-03-29 01:34:00,
2013-03-28 21:39:00,37.1,28.9,29.99,North,0,0.0,0.0,72,0.00,,---,0.17,0.00,VWS V14.01,2013-03-29 01:39:00,
2013-03-28 21:44:00,36.5,28.7,29.99,North,0,0.0,0.0,73,0.00,,---,0.17,0.00,VWS V14.01,2013-03-29 01:44:00,
2013-03-28 21:49:00,35.9,28.8,29.99,North,0,0.0,0.0,75,0.00,,---,0.17,0.00,VWS V14.01,2013-03-29 01:49:00,
2013-03-28 21:54:00,35.5,28.4,29.99,North,0,0.0,0.0,75,0.00,,---,0.17,0.00,VWS V14.01,2013-03-29 01:54:00,
2013-03-28 21:59:00,35.2,28.1,29.99,North,0,0.0,0.0,75,0.00,,---,0.17,0.00,VWS V14.01,2013-03-29 01:59:00,
2013-03-28 22:04:00,35.1,28.3,29.99,North,0,0.0,0.0,76,0.00,,---,0.17,0.00,VWS V14.01,2013-03-29 02:04:00,
2013-03-28 22:09:00,34.8,28.3,29.99,North,0,0.0,0.0,77,0.00,,---,0.17,0.00,VWS V14.01,2013-03-29 02:09:00,
2013-03-28 22:14:00,34.5,28.0,29.99,North,0,0.0,0.0,77,0.00,,---,0.17,0.00,VWS V14.01,2013-03-29 02:14:00,
2013-03-28 22:19:00,34.3,28.2,29.99,North,0,0.0,0.0,78,0.00,,---,0.17,0.00,VWS V14.01,2013-03-29 02:19:00,
2013-03-28 22:24:00,34.5,28.0,29.99,North,0,0.0,0.0,77,0.00,,---,0.17,0.00,VWS V14.01,2013-03-29 02:24:00,
2013-03-28 22:29:00,34.8,28.0,29.99,North,0,0.0,0.0,76,0.00,,---,0.17,0.00,VWS V14.01,2013-03-29 02:29:00,
2013-03-28 22:34:00,35.1,28.0,29.99,North,0,0.0,0.0,75,0.00,,---,0.17,0.00,VWS V14.01,2013-03-29 02:34:00,
2013-03-28 22:39:00,34.9,28.1,29.99,North,0,0.0,0.0,76,0.00,,---,0.17,0.00,VWS V14.01,2013-03-29 02:39:00,
2013-03-28 22:44:00,34.3,27.9,29.99,North,0,0.0,0.0,77,0.00,,---,0.17,0.00,VWS V14.01,2013-03-29 02:44:00,
2013-03-28 22:49:00,34.2,28.1,29.99,North,0,0.0,0.0,78,0.00,,---,0.17,0.00,VWS V14.01,2013-03-29 02:49:00,
2013-03-28 22:54:00,34.0,27.9,29.99,North,0,0.0,0.0,78,0.00,,---,0.17,0.00,VWS V14.01,2013-03-29 02:54:00,
2013-03-28 22:59:00,34.2,28.1,29.99,North,0,0.0,0.0,78,0.00,,---,0.17,0.00,VWS V14.01,2013-03-29 02:59:00,
2013-03-28 23:04:00,34.0,27.9,29.99,North,0,0.0,0.0,78,0.00,,---,0.17,0.00,VWS V14.01,2013-03-29 03:04:00,
2013-03-28 23:09:00,33.9,28.1,29.99,North,0,0.0,0.0,79,0.00,,---,0.17,0.00,VWS V14.01,2013-03-29 03:09:00,
2013-03-28 23:14:00,33.9,28.1,29.99,North,0,0.0,0.0,79,0.00,,---,0.17,0.00,VWS V14.01,2013-03-29 03:14:00,
2013-03-28 23:19:00,33.9,28.1,29.99,North,0,0.0,0.0,79,0.00,,---,0.17,0.00,VWS V14.01,2013-03-29 03:19:00,
2013-03-28 23:24:00,33.7,27.9,29.99,North,0,0.0,0.0,79,0.00,,---,0.17,0.00,VWS V14.01,2013-03-29 03:24:00,
2013-03-28 23:29:00,33.7,27.9,29.99,North,0,0.0,0.0,79,0.00,,---,0.17,0.00,VWS V14.01,2013-03-29 03:29:00,
2013-03-28 23:34:00,33.9,28.1,29.99,North,0,0.0,0.0,79,0.00,,---,0.17,0.00,VWS V14.01,2013-03-29 03:34:00,
2013-03-28 23:39:00,34.0,28.5,29.99,North,0,0.0,0.0,80,0.00,,---,0.17,0.00,VWS V14.01,2013-03-29 03:39:00,
2013-03-28 23:44:00,34.5,28.7,29.99,North,0,0.0,0.0,79,0.00,,---,0.17,0.00,VWS V14.01,2013-03-29 03:44:00,
2013-03-28 23:49:00,34.8,28.6,29.99,North,0,0.0,0.0,78,0.00,,---,0.17,0.00,VWS V14.01,2013-03-29 03:49:00,
2013-03-28 23:54:00,34.8,28.6,29.99,North,0,0.0,0.0,78,0.00,,---,0.17,0.00,VWS V14.01,2013-03-29 03:54:00,
2013-03-28 23:59:00,34.9,28.8,29.99,North,0,0.0,0.0,78,0.00,,---,0.17,0.00,VWS V14.01,2013-03-29 03:59:00,